Regional Weather Roundup
Issued by NWS

Home | Current Version | Previous Version | Text Only | Print | Product List | Glossary Off
Versions: 1 2 3 4 5 6 7 8 9 10 11 12 13 14 15 16 17 18 19 20 21 22 23 24 25 26 27 28 29 30 31 32 33 34 35 36 37 38 39 40 41 42 43 44 45 46 47 48 49 50

000
ASUS45 KABQ 260410
RWRNM
NEW MEXICO REGIONAL WEATHER ROUNDUP
NATIONAL WEATHER SERVICE ALBUQUERQUE NM
1000 PM MDT THU MAY 25 2017

NOTE: "FAIR" MEANS FEW OR NO CLOUDS BELOW 12,000 FEET AGL WITH NO
       SIGNIFICANT WEATHER OR OBSTRUCTIONS TO VISION.

      THIS PRODUCT IS RELEASED AS TWO VERSIONS.  ONE VERSION NEAR
      THE TOP OF THE HOUR CONTAINING PRELIMINARY DATA FROM ALBUQUERQUE
      AND OTHER STATIONS.  A FINAL VERSION WITH ADDITIONAL DATA IS
      ISSUED ABOUT 10 MINUTES AFTER THE HOUR.

NMZ501-503-504-510>518-260500-
NORTHWEST PLATEAU/NORTHCENTRAL MOUNTAINS

CITY           SKY/WX    TMP DP  RH WIND       PRES   REMARKS
FARMINGTON     FAIR      68  22  17 SW9       29.79R
LOS ALAMOS     FAIR      67  14  12 SW13G18   29.95R
SANTA FE       FAIR      66  14  13 W10       29.89R
TAOS           FAIR      57  18  21 N6        29.93R
ANGEL FIRE     FAIR      58  22  25 W8G16     30.01R

$$
NMZ402-403-502-505>509-260500-
WESTCENTRAL MOUNTAINS/SOUTHWEST MOUNTAINS

CITY           SKY/WX    TMP DP  RH WIND       PRES   REMARKS
GALLUP         FAIR      66   7  10 SW24G33   29.96R
GRANTS         FAIR      66   4   8 W13G21    29.98R
SILVER CITY    FAIR      71  15  12 W12       29.97R

$$
NMZ407-409-411-412-260500-
SOUTHERN DESERTS

CITY           SKY/WX    TMP DP  RH WIND       PRES   REMARKS
DEMING         FAIR      77  17  10 W12       29.90R
LAS CRUCES     FAIR      79  16   9 W10       29.91R
HOLLOMAN AFB   FAIR      77  14   9 SW8       29.90R
ALAMOGORDO     FAIR      77  14   9 W8        29.87R
T OR C         FAIR      77  10   7 W9        29.90R

$$
NMZ519>523-260500-
CENTRAL VALLEYS/CENTRAL HIGHLANDS

CITY           SKY/WX    TMP DP  RH WIND       PRES   REMARKS
ALBUQUERQUE    MOCLDY    74   1   6 W12       29.89R
DOUBLE EAGLE   MOCLDY    68   7   9 SW15      29.90R
MORIARTY ARPT  FAIR      71   8   8 W20G29    29.93R
CLINES CORNERS FAIR      63   5  10 W21G29    29.96R
BELEN          NOT AVBL
SOCORRO        FAIR      74  10   8 W8        29.89R

$$
NMZ524>526-539-540-260500-
SOUTHCENTRAL MOUNTAINS

CITY           SKY/WX    TMP DP  RH WIND       PRES   REMARKS
RUIDOSO        FAIR      68   9  10 W24G31    30.02R

$$
NMZ527>531-260500-
NORTHEAST HIGHLANDS/NORTHEAST PLAINS

CITY           SKY/WX    TMP DP  RH WIND       PRES   REMARKS
LAS VEGAS      FAIR      64   8  11 W14       29.90R
RATON          FAIR      67  22  18 W15G24    29.83R
CLAYTON        FAIR      63  33  32 W12       29.72R

$$
NMZ532>537-260500-
EASTCENTRAL PLAINS

CITY           SKY/WX    TMP DP  RH WIND       PRES   REMARKS
SANTA ROSA     FAIR      73  15  11 W10       29.78R
TUCUMCARI      FAIR      69  32  25 W13       29.67R
CANNON AFB     FAIR      73  22  15 SW13      29.77R
CLOVIS AIRPORT FAIR      68  25  19 SW12      29.75R

$$
NMZ028-029-538-260500-
SOUTHEAST PLAINS

CITY           SKY/WX    TMP DP  RH WIND       PRES   REMARKS
ROSWELL        FAIR      78  19  11 SW12      29.76R
ARTESIA        FAIR      77  21  12 SW10      29.78R
CARLSBAD       FAIR      81  26  13 SW12      29.76R
HOBBS          FAIR      75  27  16 SW10      29.79R


$$




USA.gov is the U.S. government's official web portal to all federal, state and local government web resources and services.